User: anonymous   Login
Location: ???????
(55.4362°N, 38.1183°E)
Time: 18:29:13
(UTC+00:00)
Language:

Cosmos-2242 - Orbit

View from above orbital plane
View from above orbital plane
View from above satellite
View from above satellite

Ground track
Ground track

The orbit data is extracted from the following two-line orbital elements,

1 22626U 93024A   21265.04029275  .00000230  00000-0  22241-4 0  9991
2 22626  82.5251  12.5542 0018551 352.8018   7.2930 14.88176207537807
Epoch (UTC): 22 September 2021 00:58:01
Eccentricity: 0.0018551
inclination: 82.5251°
perigee height: 590 km
apogee height: 616 km
right ascension of ascending node: 12.5542°
argument of perigee: 352.8018°
revolutions per day: 14.88176207
mean anomaly at epoch: 7.2930°
orbit number at epoch: 53780

The dashed part of the orbit path shows where the satellite is in the earth's shadow,  

DLR